EW2270 Weather Reports


time (UTC)temp
F
wind
direction
speed
knots
gust
knots
rain 1hr
in
rain 24hr
in
rain mn
in
humidity
%
barometer
mb
20260903033041 59 170 3.5 6.1 0.01 0.01 0.01 76 1007.9
20260903031539 59 158 2.6 4.3 0.00 0.00 0.00 74 1007.7
20260903030034 60 208 2.6 6.1 0.00 0.00 0.00 72 1007.6
20260903024533 61 210 3.5 7.8 0.00 0.00 0.00 66 1007.3
20260903023036 62 188 6.1 11.3 0.00 0.00 0.00 61 1007.2
20260903021531 63 196 6.1 12.2 0.00 0.00 0.00 58 1007.2
20260903020031 64 202 7.8 13.9 0.00 0.00 0.00 56 1007.2
20260903014544 65 193 11.3 15.6 0.00 0.00 0.00 52 1007.1
20260903013034 64 198 10.4 15.6 0.00 0.00 0.00 55 1007.1
20260903011528 64 195 13.0 19.1 0.00 0.00 0.00 55 1007.1
20260903010028 66 202 12.2 18.2 0.00 0.00 0.00 52 1006.9
20260903004540 65 194 11.3 17.4 0.00 0.00 0.00 52 1006.9
20260903003031 66 233 8.7 16.5 0.00 0.00 0.00 53 1006.8
20260903001526 66 196 9.6 17.4 0.00 0.00 0.00 53 1006.5
20260903000024 67 243 8.7 15.6 0.00 0.00 0.00 55 1006.4
20260902234523 69 250 9.6 23.5 0.00 0.00 0.00 44 1006.2
20260902233024 70 248 11.3 18.2 0.00 0.00 0.00 42 1006.2
20260902231521 71 259 13.0 22.6 0.00 0.00 0.00 39 1006.0
20260902230021 71 241 13.0 26.9 0.00 0.00 0.00 39 1005.5
20260902224620 72 263 19.1 26.1 0.00 0.00 0.00 39 1005.2
20260902223020 73 251 19.1 26.9 0.00 0.00 0.00 35 1005.1
20260902221523 75 230 13.9 21.7 0.00 0.00 0.00 30 1005.1
20260902220018 76 221 12.2 19.1 0.00 0.00 0.00 28 1004.4
20260902214525 76 231 7.8 17.4 0.00 0.00 0.00 28 1004.2
20260902213024 77 110 5.2 11.3 0.00 0.00 0.00 29 1003.9
20260902211509 75 100 3.5 7.8 0.00 0.00 0.00 35 1004.1
20260902210015 75 146 3.5 10.4 0.00 0.00 0.00 35 1004.3
20260902204504 74 6 3.5 7.8 0.00 0.00 0.00 37 1004.3
20260902203003 74 27 2.6 9.6 0.00 0.00 0.00 38 1004.5
20260902201603 73 49 7.8 11.3 0.00 0.00 0.00 39 1004.7
20260902200059 72 44 3.5 7.8 0.00 0.00 0.00 40 1005.0
20260902194555 71 23 2.6 5.2 0.00 0.00 0.00 41 1005.4
20260902193056 71 356 2.6 6.1 0.00 0.00 0.00 41 1005.5
20260902191555 71 340 2.6 4.3 0.00 0.00 0.00 41 1005.7
20260902190051 71 318 0.0 7.0 0.00 0.00 0.00 42 1005.9
20260902184557 72 43 0.0 3.5 0.00 0.00 0.00 42 1006.1
20260902183046 71 111 0.0 5.2 0.00 0.00 0.00 42 1006.3
20260902181547 70 284 2.6 6.1 0.00 0.00 0.00 43 1006.5
20260902180040 69 291 0.9 5.2 0.00 0.00 0.00 44 1006.6
20260902174538 68 279 0.0 4.3 0.00 0.00 0.00 45 1006.9
20260902173036 68 187 1.7 4.3 0.00 0.00 0.00 46 1007.0
20260902171534 68 357 2.6 4.3 0.00 0.00 0.00 47 1007.2
20260902170031 66 30 2.6 5.2 0.00 0.00 0.00 49 1007.3
20260902164530 66 248 4.3 6.1 0.00 0.00 0.00 49 1007.3
20260902163028 65 222 1.7 5.2 0.00 0.00 0.00 51 1007.4
20260902161526 65 302 0.9 6.1 0.00 0.00 0.00 51 1007.4
20260902160024 65 229 2.6 5.2 0.00 0.00 0.00 51 1007.5
20260902154526 64 269 5.2 8.7 0.00 0.00 0.00 52 1007.8
20260902153023 63 210 2.6 6.1 0.00 0.00 0.00 54 1008.0
20260902151518 60 156 0.9 1.7 0.00 0.00 0.00 62 1008.2
20260902150018 56 157 0.0 0.0 0.00 0.00 0.00 66 1008.3
20260902144520 55 157 0.0 1.7 0.00 0.00 0.00 67 1008.5
20260902143017 54 186 3.5 5.2 0.00 0.00 0.00 69 1008.5
20260902141516 55 148 1.7 3.5 0.00 0.00 0.00 68 1008.4
20260902140013 54 141 1.7 2.6 0.00 0.00 0.00 68 1008.5
20260902134513 55 193 0.0 3.5 0.00 0.00 0.00 68 1008.5
20260902133012 56 186 1.7 2.6 0.00 0.00 0.00 66 1008.5
20260902131511 56 169 2.6 4.3 0.00 0.00 0.00 67 1008.5
20260902130010 55 165 2.6 3.5 0.00 0.00 0.00 69 1008.2
20260902124509 55 233 0.9 2.6 0.00 0.00 0.00 68 1008.2
20260902123009 55 238 0.9 4.3 0.00 0.00 0.00 68 1008.2
20260902121506 55 203 3.5 5.2 0.00 0.00 0.00 69 1008.1
20260902120007 56 140 1.7 2.6 0.00 0.00 0.00 67 1007.7
20260902114501 57 158 0.0 1.7 0.00 0.00 0.00 66 1007.6
20260902113004 58 158 0.0 2.6 0.00 0.00 0.00 65 1007.7
20260902111606 58 158 0.9 2.6 0.00 0.00 0.00 66 1008.1
20260902110059 58 158 0.0 1.7 0.00 0.00 0.00 66 1008.4
20260902104558 59 153 1.7 4.3 0.00 0.00 0.00 66 1008.7
20260902103056 58 159 3.5 6.1 0.00 0.00 0.00 66 1008.5
20260902101555 57 146 2.6 4.3 0.00 0.00 0.00 67 1008.2
20260902100104 56 149 4.3 5.2 0.00 0.00 0.00 67 1008.1
20260902094551 57 153 0.9 3.5 0.00 0.00 0.00 66 1007.9
20260902093048 58 127 1.7 5.2 0.00 0.00 0.00 64 1008.0
20260902091550 60 176 0.0 5.2 0.00 0.00 0.00 62 1008.0
20260902090043 61 210 1.7 7.8 0.00 0.00 0.00 61 1008.3
20260902084539 61 236 3.5 7.0 0.00 0.00 0.00 60 1008.4
20260902083038 62 207 2.6 10.4 0.00 0.00 0.00 59 1007.9
20260902081538 62 203 6.1 11.3 0.00 0.00 0.00 59 1008.4
20260902080035 62 199 3.5 10.4 0.00 0.00 0.00 58 1008.3
20260902074538 62 202 5.2 9.6 0.00 0.00 0.00 57 1008.4
20260902073032 62 233 6.1 13.9 0.00 0.00 0.00 57 1008.0
20260902071526 63 203 6.1 13.9 0.00 0.00 0.00 56 1008.1
20260902070023 63 221 7.0 13.0 0.00 0.00 0.00 55 1007.9
20260902064522 63 221 4.3 10.4 0.00 0.00 0.00 55 1007.7
20260902063033 64 195 6.1 13.0 0.00 0.00 0.00 54 1007.4
20260902061523 64 203 4.3 13.9 0.00 0.00 0.00 53 1007.4
20260902060018 63 200 4.3 7.0 0.00 0.00 0.00 53 1007.4
20260902054524 64 207 1.7 8.7 0.00 0.00 0.00 50 1007.4
20260902053016 66 232 7.8 14.8 0.00 0.00 0.00 48 1007.1
20260902051515 66 229 6.1 12.2 0.00 0.00 0.00 48 1007.1
20260902050043 67 210 7.8 14.8 0.00 0.00 0.00 45 1006.9
20260902044513 68 221 5.2 12.2 0.00 0.00 0.00 44 1006.7
20260902043027 68 219 4.3 15.6 0.00 0.00 0.00 43 1006.5
20260902041513 68 200 6.1 9.6 0.00 0.00 0.00 42 1006.2
20260902040012 67 156 2.6 4.3 0.00 0.00 0.00 42 1005.8
20260902034511 68 147 2.6 5.2 0.00 0.00 0.00 42 1005.4